AL, 04, 1917092000,   , BEST,   0, 134N,  571W,  40,     , TS, , , , , , , , , , , , , ,    UNNAMED
AL, 04, 1917092006,   , BEST,   0, 137N,  583W,  40,     , TS, , , , , , , , , , , , , ,    UNNAMED
AL, 04, 1917092012,   , BEST,   0, 140N,  595W,  40,     , TS, , , , , , , , , , , , , ,    UNNAMED
AL, 04, 1917092018,   , BEST,   0, 143N,  607W,  45,     , TS, , , , , , , , , , , , , ,    UNNAMED
AL, 04, 1917092100,   , BEST,   0, 147N,  619W,  50,     , TS, , , , , , , , , , , , , ,    UNNAMED
AL, 04, 1917092106,   , BEST,   0, 151N,  631W,  55,     , TS, , , , , , , , , , , , , ,    UNNAMED
AL, 04, 1917092112,   , BEST,   0, 155N,  644W,  60,     , TS, , , , , , , , , , , , , ,    UNNAMED
AL, 04, 1917092118,   , BEST,   0, 158N,  661W,  65,     , HU, , , , , , , , , , , , , ,    UNNAMED
AL, 04, 1917092200,   , BEST,   0, 162N,  679W,  70,     , HU, , , , , , , , , , , , , ,    UNNAMED
AL, 04, 1917092206,   , BEST,   0, 165N,  699W,  75,     , HU, , , , , , , , , , , , , ,    UNNAMED
AL, 04, 1917092212,   , BEST,   0, 169N,  716W,  80,     , HU, , , , , , , , , , , , , ,    UNNAMED
AL, 04, 1917092218,   , BEST,   0, 173N,  731W,  85,     , HU, , , , , , , , , , , , , ,    UNNAMED
AL, 04, 1917092300,   , BEST,   0, 177N,  745W,  85,     , HU, , , , , , , , , , , , , ,    UNNAMED
AL, 04, 1917092306,   , BEST,   0, 181N,  759W,  90,     , HU, , , , , , , , , , , , , ,    UNNAMED
AL, 04, 1917092312,   , BEST,   0, 184N,  772W,  90,     , HU, , , , , , , , , , , , , ,    UNNAMED
AL, 04, 1917092318,   , BEST,   0, 188N,  782W,  95,     , HU, , , , , , , , , , , , , ,    UNNAMED
AL, 04, 1917092400,   , BEST,   0, 192N,  790W,  95,     , HU, , , , , , , , , , , , , ,    UNNAMED
AL, 04, 1917092406,   , BEST,   0, 196N,  796W, 100,     , HU, , , , , , , , , , , , , ,    UNNAMED
AL, 04, 1917092412,   , BEST,   0, 201N,  802W, 100,     , HU, , , , , , , , , , , , , ,    UNNAMED
AL, 04, 1917092418,   , BEST,   0, 206N,  808W, 105,     , HU, , , , , , , , , , , , , ,    UNNAMED
AL, 04, 1917092500,   , BEST,   0, 210N,  813W, 110,     , HU, , , , , , , , , , , , , ,    UNNAMED
AL, 04, 1917092506,   , BEST,   0, 214N,  819W, 120,     , HU, , , , , , , , , , , , , ,    UNNAMED
AL, 04, 1917092512,   , BEST,   0, 218N,  825W, 130,  928, HU, , , , , , , , , , , , , ,    UNNAMED
AL, 04, 1917092518,   , BEST,   0, 223N,  832W, 130,     , HU, , , , , , , , , , , , , ,    UNNAMED
AL, 04, 1917092600,   , BEST,   0, 228N,  839W, 120,     , HU, , , , , , , , , , , , , ,    UNNAMED
AL, 04, 1917092606,   , BEST,   0, 233N,  846W, 120,     , HU, , , , , , , , , , , , , ,    UNNAMED
AL, 04, 1917092612,   , BEST,   0, 239N,  852W, 120,     , HU, , , , , , , , , , , , , ,    UNNAMED
AL, 04, 1917092618,   , BEST,   0, 244N,  860W, 120,     , HU, , , , , , , , , , , , , ,    UNNAMED
AL, 04, 1917092700,   , BEST,   0, 247N,  870W, 115,     , HU, , , , , , , , , , , , , ,    UNNAMED
AL, 04, 1917092706,   , BEST,   0, 251N,  881W, 115,     , HU, , , , , , , , , , , , , ,    UNNAMED
AL, 04, 1917092712,   , BEST,   0, 257N,  889W, 110,     , HU, , , , , , , , , , , , , ,    UNNAMED
AL, 04, 1917092718,   , BEST,   0, 263N,  892W, 110,     , HU, , , , , , , , , , , , , ,    UNNAMED
AL, 04, 1917092800,   , BEST,   0, 271N,  894W, 105,     , HU, , , , , , , , , , , , , ,    UNNAMED
AL, 04, 1917092806,   , BEST,   0, 280N,  892W, 105,     , HU, , , , , , , , , , , , , ,    UNNAMED
AL, 04, 1917092812,   , BEST,   0, 288N,  888W, 105,     , HU, , , , , , , , , , , , , ,    UNNAMED
AL, 04, 1917092818,   , BEST,   0, 295N,  879W, 100,     , HU, , , , , , , , , , , , , ,    UNNAMED
AL, 04, 1917092900,   , BEST,   0, 302N,  869W, 100,  949, HU, , , , , , , , , , , , , ,    UNNAMED
AL, 04, 1917092902,   , BEST,   0, 304N,  866W, 100,  949, HU, , , , , , , , , , , , , ,    UNNAMED
AL, 04, 1917092906,   , BEST,   0, 309N,  860W,  75,     , HU, , , , , , , , , , , , , ,    UNNAMED
AL, 04, 1917092912,   , BEST,   0, 315N,  852W,  55,     , TS, , , , , , , , , , , , , ,    UNNAMED
AL, 04, 1917092918,   , BEST,   0, 319N,  844W,  40,     , TS, , , , , , , , , , , , , ,    UNNAMED
AL, 04, 1917093000,   , BEST,   0, 320N,  832W,  35,     , TS, , , , , , , , , , , , , ,    UNNAMED
AL, 04, 1917093006,   , BEST,   0, 320N,  825W,  30,     , EX, , , , , , , , , , , , , ,    UNNAMED
